When you browse on this site, cookies collect data to enhance your experience and personalize the content and advertising you see.
Visit our Privacy Policy to learn more. By continuing to use the site, you agree to this use of cookies and data.
  • In Österreich
  • Länderverzeichnis
  • Für 7 Tage
  • Wassertemperatur
  • Wetterkarte
  • News
  • Widgets
  • user-avatar
    Anmelden

    Stündliche Wetter Tezontepec

    Heute, 19 August, Montag

    Zeit Temperatur Niederschläge Wind Luftdruck Luftfeuchtigkeit
    00:00 +14°C° 0 mm 2 m/S 576 mmHg 91%
    01:00 +14°C° 0 mm 2 m/S 576 mmHg 92%
    02:00 +14°C° 0 mm 1 m/S 576 mmHg 92%
    03:00 +14°C° 0 mm 1 m/S 576 mmHg 92%
    04:00 +14°C° 0 mm 2 m/S 576 mmHg 92%
    05:00 +13°C° 0 mm 2 m/S 576 mmHg 92%
    06:00 +15°C° 0 mm 2 m/S 576 mmHg 86%
    07:00 +16°C° 0 mm 2 m/S 577 mmHg 80%
    08:00 +17°C° 0 mm 2 m/S 578 mmHg 74%
    09:00 +19°C° 0 mm 3 m/S 578 mmHg 67%
    10:00 +21°C° 0 mm 4 m/S 579 mmHg 59%
    11:00 +22°C° 0 mm 5 m/S 580 mmHg 52%
    12:00 +22°C° 0.2 mm 6 m/S 579 mmHg 54%
    13:00 +22°C° 0.2 mm 7 m/S 579 mmHg 56%
    14:00 +22°C° 0.2 mm 8 m/S 578 mmHg 58%
    15:00 +21°C° 0.1 mm 7 m/S 578 mmHg 62%
    16:00 +20°C° 0.1 mm 6 m/S 577 mmHg 65%
    17:00 +17°C° 0.1 mm 6 m/S 577 mmHg 69%
    18:00 +16°C° 0 mm 5 m/S 577 mmHg 75%
    19:00 +14°C° 0 mm 4 m/S 577 mmHg 80%
    20:00 +13°C° 0 mm 3 m/S 576 mmHg 86%
    21:00 +13°C° 0 mm 2 m/S 576 mmHg 86%
    22:00 +13°C° 0 mm 2 m/S 576 mmHg 86%
    23:00 +12°C° 0 mm 2 m/S 576 mmHg 86%

    Morgen, 20 August, Dienstag

    Zeit Temperatur Niederschläge Wind Luftdruck Luftfeuchtigkeit
    00:00 +12°C° 0 mm 2 m/S 575 mmHg 85%
    01:00 +10°C° 0 mm 2 m/S 575 mmHg 84%
    02:00 +9°C° 0 mm 2 m/S 575 mmHg 83%
    03:00 +10°C° 0 mm 1 m/S 575 mmHg 84%
    04:00 +10°C° 0 mm 1 m/S 574 mmHg 84%
    05:00 +9°C° 0 mm 1 m/S 574 mmHg 84%
    06:00 +11°C° 0 mm 1 m/S 576 mmHg 77%
    07:00 +13°C° 0 mm 1 m/S 577 mmHg 69%
    08:00 +15°C° 0 mm 1 m/S 578 mmHg 62%
    09:00 +18°C° 0 mm 2 m/S 579 mmHg 57%
    10:00 +20°C° 0 mm 3 m/S 579 mmHg 52%
    11:00 +22°C° 0 mm 3 m/S 580 mmHg 46%
    12:00 +22°C° 0.1 mm 4 m/S 580 mmHg 49%
    13:00 +22°C° 0.1 mm 5 m/S 579 mmHg 52%
    14:00 +22°C° 0.1 mm 5 m/S 578 mmHg 54%
    15:00 +21°C° 0.4 mm 6 m/S 578 mmHg 61%
    16:00 +19°C° 0.4 mm 6 m/S 577 mmHg 68%
    17:00 +17°C° 0.4 mm 6 m/S 577 mmHg 74%
    18:00 +15°C° 0 mm 5 m/S 577 mmHg 79%
    19:00 +14°C° 0 mm 4 m/S 577 mmHg 84%
    20:00 +13°C° 0 mm 3 m/S 577 mmHg 89%
    21:00 +13°C° 0 mm 2 m/S 577 mmHg 89%
    22:00 +13°C° 0 mm 2 m/S 577 mmHg 89%
    23:00 +13°C° 0 mm 2 m/S 577 mmHg 89%

    übermorgen, 21 August, Mittwoch

    Zeit Temperatur Niederschläge Wind Luftdruck Luftfeuchtigkeit
    00:00 +13°C° 0 mm 1 m/S 576 mmHg 89%
    01:00 +12°C° 0 mm 1 m/S 576 mmHg 89%
    02:00 +12°C° 0 mm 1 m/S 575 mmHg 89%
    03:00 +12°C° 0 mm 1 m/S 575 mmHg 90%
    04:00 +11°C° 0 mm 1 m/S 575 mmHg 90%
    05:00 +11°C° 0 mm 1 m/S 575 mmHg 91%
    06:00 +12°C° 0 mm 1 m/S 576 mmHg 85%
    07:00 +14°C° 0 mm 1 m/S 577 mmHg 79%
    08:00 +16°C° 0 mm 1 m/S 578 mmHg 73%
    09:00 +19°C° 0 mm 1 m/S 579 mmHg 65%
    10:00 +20°C° 0 mm 2 m/S 579 mmHg 57%
    11:00 +23°C° 0 mm 2 m/S 580 mmHg 49%
    12:00 +22°C° 0.1 mm 3 m/S 579 mmHg 51%
    13:00 +22°C° 0.1 mm 4 m/S 579 mmHg 54%
    14:00 +22°C° 0.1 mm 4 m/S 578 mmHg 56%
    15:00 +21°C° 0.6 mm 4 m/S 578 mmHg 62%
    16:00 +19°C° 0.6 mm 4 m/S 578 mmHg 68%
    17:00 +17°C° 0.6 mm 5 m/S 577 mmHg 74%
    18:00 +17°C° 0.2 mm 4 m/S 577 mmHg 79%
    19:00 +14°C° 0.2 mm 3 m/S 577 mmHg 84%
    20:00 +14°C° 0.2 mm 2 m/S 576 mmHg 89%
    21:00 +14°C° 0.1 mm 2 m/S 577 mmHg 89%
    22:00 +14°C° 0.1 mm 1 m/S 577 mmHg 89%
    23:00 +14°C° 0.1 mm 1 m/S 577 mmHg 88%

    22 August, Donnerstag

    Zeit Temperatur Niederschläge Wind Luftdruck Luftfeuchtigkeit
    00:00 +13°C° 0 mm 1 m/S 576 mmHg 89%
    01:00 +13°C° 0 mm 1 m/S 576 mmHg 91%
    02:00 +12°C° 0 mm 1 m/S 575 mmHg 92%
    03:00 +12°C° 0 mm 1 m/S 575 mmHg 91%
    04:00 +12°C° 0 mm 1 m/S 575 mmHg 91%
    05:00 +12°C° 0 mm 1 m/S 575 mmHg 91%
    06:00 +14°C° 0 mm 1 m/S 576 mmHg 85%
    07:00 +16°C° 0 mm 1 m/S 578 mmHg 78%
    08:00 +18°C° 0 mm 1 m/S 579 mmHg 71%
    09:00 +20°C° 0.2 mm 1 m/S 579 mmHg 66%
    10:00 +21°C° 0.2 mm 1 m/S 580 mmHg 60%
    11:00 +23°C° 0.2 mm 1 m/S 580 mmHg 55%
    12:00 +23°C° 1.3 mm 2 m/S 579 mmHg 55%
    13:00 +23°C° 1.3 mm 2 m/S 579 mmHg 56%
    14:00 +24°C° 1.3 mm 3 m/S 579 mmHg 56%
    15:00 +22°C° 2.2 mm 3 m/S 578 mmHg 62%
    16:00 +21°C° 2.2 mm 3 m/S 578 mmHg 68%
    17:00 +20°C° 2.2 mm 2 m/S 577 mmHg 74%
    18:00 +19°C° 1.4 mm 2 m/S 577 mmHg 77%
    19:00 +18°C° 1.4 mm 2 m/S 577 mmHg 81%
    20:00 +17°C° 1.4 mm 2 m/S 578 mmHg 84%
    21:00 +16°C° 0.7 mm 2 m/S 577 mmHg 86%
    22:00 +16°C° 0.7 mm 2 m/S 577 mmHg 87%
    23:00 +15°C° 0.7 mm 2 m/S 577 mmHg 89%

    23 August, Freitag

    Zeit Temperatur Niederschläge Wind Luftdruck Luftfeuchtigkeit
    00:00 +15°C° 0 mm 2 m/S 577 mmHg 88%
    01:00 +15°C° 0 mm 1 m/S 577 mmHg 88%
    02:00 +15°C° 0 mm 1 m/S 577 mmHg 87%
    03:00 +15°C° 0 mm 1 m/S 577 mmHg 88%
    04:00 +14°C° 0 mm 1 m/S 577 mmHg 88%
    05:00 +14°C° 0 mm 1 m/S 577 mmHg 89%
    06:00 +15°C° 0 mm 1 m/S 577 mmHg 85%
    07:00 +16°C° 0 mm 1 m/S 578 mmHg 81%
    08:00 +18°C° 0 mm 1 m/S 579 mmHg 77%
    09:00 +19°C° 0.3 mm 1 m/S 579 mmHg 72%
    10:00 +20°C° 0.3 mm 2 m/S 579 mmHg 66%
    11:00 +21°C° 0.3 mm 2 m/S 580 mmHg 61%
    12:00 +23°C° 1.1 mm 2 m/S 580 mmHg 59%
    13:00 +23°C° 1.1 mm 2 m/S 579 mmHg 57%
    14:00 +23°C° 1.1 mm 1 m/S 579 mmHg 55%
    15:00 +21°C° 1.1 mm 2 m/S 579 mmHg 61%
    16:00 +20°C° 1.1 mm 2 m/S 578 mmHg 67%
    17:00 +19°C° 1.1 mm 3 m/S 578 mmHg 73%
    18:00 +18°C° 0.6 mm 2 m/S 578 mmHg 77%
    19:00 +16°C° 0.6 mm 2 m/S 578 mmHg 82%
    20:00 +15°C° 0.6 mm 1 m/S 577 mmHg 87%
    21:00 +15°C° 0 mm 1 m/S 578 mmHg 86%
    22:00 +15°C° 0 mm 1 m/S 578 mmHg 86%
    23:00 +14°C° 0 mm 0 m/S 578 mmHg 86%

    24 August, Samstag

    Zeit Temperatur Niederschläge Wind Luftdruck Luftfeuchtigkeit
    00:00 +14°C° 0 mm 0 m/S 578 mmHg 86%
    01:00 +13°C° 0 mm 0 m/S 577 mmHg 86%
    02:00 +13°C° 0 mm 0 m/S 577 mmHg 86%
    03:00 +13°C° 0 mm 0 m/S 577 mmHg 86%
    04:00 +13°C° 0 mm 0 m/S 577 mmHg 85%
    05:00 +12°C° 0 mm 0 m/S 577 mmHg 85%
    06:00 +14°C° 0 mm 0 m/S 578 mmHg 79%
    07:00 +15°C° 0 mm 0 m/S 579 mmHg 73%
    08:00 +17°C° 0 mm 0 m/S 580 mmHg 67%
    09:00 +18°C° 0.2 mm 0 m/S 580 mmHg 61%
    10:00 +22°C° 0.2 mm 1 m/S 581 mmHg 54%
    11:00 +23°C° 0.2 mm 1 m/S 581 mmHg 48%
    12:00 +23°C° 0.1 mm 2 m/S 581 mmHg 49%
    13:00 +22°C° 0.1 mm 3 m/S 580 mmHg 50%
    14:00 +22°C° 0.1 mm 4 m/S 580 mmHg 51%
    15:00 +21°C° 0.6 mm 3 m/S 579 mmHg 57%
    16:00 +20°C° 0.6 mm 3 m/S 579 mmHg 63%
    17:00 +19°C° 0.6 mm 3 m/S 578 mmHg 69%
    18:00 +18°C° 0.1 mm 2 m/S 578 mmHg 72%
    19:00 +18°C° 0.1 mm 1 m/S 577 mmHg 74%
    20:00 +16°C° 0.1 mm 1 m/S 577 mmHg 77%
    21:00 +15°C° 0 mm 1 m/S 577 mmHg 78%
    22:00 +15°C° 0 mm 1 m/S 577 mmHg 79%
    23:00 +14°C° 0 mm 1 m/S 577 mmHg 80%
    Mehr zeigen